Showing default

EUTE 9B, 41310

Orbit data source: Space-Track

EUTE 9B, 41310 is a payload satellite owned by EutelsatSA (FR) in GEO that was launched on Fri, 29 Jan 2016 UTC via a PROTON-M/BRIZ-M launch vehicle from the Tyuratam Missile And Space Complex (TTMTR). Payload-class satellites include a variety of spacecraft equipped with specific instruments for various scientific and technological missions. These include communications satellites like Starlink; space stations such as the ISS; scientific satellites like the Hubble; Earth observation satellites from companies like Planet Labs, Umbra, and HawkEye 360; GPS; miniature CubeSats for education and research; and military/defense satellites.

Not visible in the next 10 days
Identifier
41310, 2016-005A
Orbit
GEO
Country
Flag of UnknownUnknown / EUTE
Related business
Manufacturer
Airbus/Toulouse
Mission
Operational Commercial Communications
Bus & Motor
EUROSTAR 3000, R-4D?
Mass
~5,162 kg wet, ~3,000 kg dry
Launch date (UTC)
2016-01-29 (10 years ago)
Launch vehicle
PROTON-M/BRIZ-M
Launch site
Tyuratam Missile And Space Complex (TTMTR)
Object type
Payload
Rocket body
Debris
Shape & HBR
Box + 2 Pan, 19.5 m
Radar Cross Section
46.485 m², Large (>1 m²)

Expand to show TLE details & history
Last TLE update: 1 day ago

TLE from 1 day ago
0 EUTE 9B
1 41310U 16005A   25306.32583419  .00000074  00000-0  00000+0 0  9992
2 41310   0.0610  71.2083 0004113 175.7052 281.2579  1.00270966 35840
Epoch: 2025-11-02T07:49Z
TLE epoch observation values (Epoch: 2025-11-02T07:49:12.074Z)
Latitude
0.03837°
Longitude
8.94269°
Altitude
35,782.869 km
Speed
3.075 km/s
True Right ascension
11h 12m 20s
True Declination
0° 02' 18"
Sunlit
Object was in daylight at epoch
Visualization orbit readout
Latitude
Unknown
Longitude
Unknown
Altitude
Unknown
Speed
Unknown
Apparent Right ascension
Unknown
Apparent Declination
Unknown
Sunlit
N/A
Visualization observer readout
Local Sidereal Time
10:13:03
Azimuth
Unknown
Elevation
Unknown
Doppler factor
Unknown
Orbital elements
Apogee altitude
35,805.238 km
Perigee altitude
35,770.552 km
Semi-major axis
42,166.032 km
Eccentricity
0.00041
Inclination
0.061°
RAAN
71.2083°
Arg. of periapsis
175.7052°
True anomaly
281.21167°
Mean anomaly
281.2579°
Eccentric anomaly
281.23479°
Mean motion
0.25067 °/min
Orbital period
1,436.16 mins
BSTAR
0
Loading maneuver chart data...
Computing Atmospheric mass density...
Loading historical data...
Loading historical data...
Loading historical data...
Loading historical data...
Loading historical data...
Loading historical data...
Loading historical data...
Other satellites on launch #5 in the year 2016 (2016-01-29 UTC)

Documentation

Showing up to 5 results
|